Location: Munkebjergskolens Observatorium
(55.3864°N, 10.3987°E)
Time: 04:06:51
(UTC+02:00)

QB50P2 - Pass Details

Date: 01 April 2023
Orbit: 581 x 596 km, 98.0° (Epoch: 31 May)

Event Time Altitude Azimuth Distance (km) Brightness Sun altitude
Rises 03:21:18 0° 15° (NNE) 2,843 ? -25.4°
Reaches altitude 10° 03:23:29 10° 16° (NNE) 1,934 ? -25.2°
Enters shadow 03:27:19 73° 34° (NE) 621 ? -24.9°
